Regional Weather Roundup
Issued by NWS

Home | Current Version | Previous Version | Graphics & Text | Print | Product List | Glossary On
Versions: 1 2 3 4 5 6 7 8 9 10 11 12 13 14 15 16 17 18 19 20 21 22 23 24 25 26 27 28 29 30 31 32 33 34 35 36 37 38 39 40 41 42 43 44 45 46 47 48 49 50
720
ASUS43 KBIS 231202
RWRND

NORTH DAKOTA REGIONAL WEATHER ROUNDUP
NATIONAL WEATHER SERVICE BISMARCK ND
600 AM CST THU NOV 23 2017

NOTE: "FAIR" INDICATES FEW OR NO CLOUDS BELOW 12,000 FEET WITH NO
SIGNIFICANT WEATHER AND/OR OBSTRUCTIONS TO VISIBILITY.


NDZ001>003-009>011-017-231300-
NORTHWEST NORTH DAKOTA

CITY           SKY/WX    TMP DP  RH WIND       PRES   REMARKS
WILLISTON      CLOUDY    28  25  88 CALM      29.75F
6HR MIN TEMP:  22; 6HR MAX TEMP:  28;

MINOT          CLOUDY    32  29  88 S9        29.75F
MINOT AFB      CLOUDY    24  22  92 SE3       29.73F
$$

NDZ018>021-031>035-040>046-231300-
SOUTHWEST NORTH DAKOTA

CITY           SKY/WX    TMP DP  RH WIND       PRES   REMARKS
BISMARCK       CLOUDY    26  22  84 E6        29.86F WCI  19
6HR MIN TEMP:  23; 6HR MAX TEMP:  28;

DICKINSON      CLOUDY    44  39  82 W12       29.80F
GARRISON         N/A     28  27  96 S5        29.79F
6HR MIN TEMP:  22; 6HR MAX TEMP:  29;

HETTINGER ARPT CLOUDY    36  33  89 NW3       29.89F
$$

NDZ004>008-012>016-024-026-027-054-231300-
NORTHEAST NORTH DAKOTA

CITY           SKY/WX    TMP DP  RH WIND       PRES   REMARKS
GRAND FORKS    CLOUDY    27  26  96 S6        29.90S
GRND FRKS AFB  CLOUDY    29  28  97 S5        29.89F
DEVILS LAKE    CLOUDY    22  21  96 S5        29.85F WCI  16
$$

NDZ022-023-025-028>030-036>039-047>053-231300-
SOUTHEAST NORTH DAKOTA

CITY           SKY/WX    TMP DP  RH WIND       PRES   REMARKS
FARGO          CLOUDY    27  21  78 S5        29.92F
6HR MIN TEMP:  19; 6HR MAX TEMP:  27;

JAMESTOWN      CLOUDY    22  20  92 S7        29.88F WCI  13
$$





USA.gov is the U.S. government's official web portal to all federal, state and local government web resources and services.